Погода в Бедряже

Россия / Пермский край     56°34′25″N   55°53′01″E
темп.,
°C
ветер,
м/с
пор.,
м/с
влажн.,
%
обл.,
%
осадки,
мм/ч
давл.,
гПа
погр.,
м
23 мая, пн
пн2323:00+2юз358698 0.7 999103
02:00+1юз349139 0.0 99965
05:00−1ююз239470 0.0 99944
08:00+4ююз23806 0.0 999352
11:00+8ю3466100 0.0 9981243
14:00+6ю1287100 0.4 998590
17:00+6ю238893 0.6 1000398
20:00+7ююз3587100 0.3 1000216
24 мая, вт
вт2423:00+5ююз358779 0.6 1002137
02:00+4ю2590100 0.0 1003110
05:00+4ююв2391100 0.0 100469
08:00+7ююз368199 0.1 1005540
11:00+7ююз5679100 0.6 1006916
14:00+9ююв457730 0.6 1008728
17:00+11юз356299 0.8 10081389
20:00+10з1173100 0.1 100812
25 мая, ср
ср2523:00+7всв1177100 0.1 100911
02:00+6в2392100 0.0 100947
05:00+6св2296100 0.0 100819
08:00+9ссв228695 0.0 1008246
11:00+13всв2269100 0.1 10071028
14:00+12в2174100 0.6 1007739
17:00+13юв227196 1.6 1007553
20:00+11ююв3481100 0.8 1007119
26 мая, чт
чт2623:00+8зсз4891100 1.1 1007264
02:00+7з3694100 0.0 1007254
05:00+5з479598 0.0 1008242
08:00+7зсз587928 0.0 1008606
11:00+9з575830 0.1 10081492
14:00+9зюз786784 0.1 10081332
17:00+8зюз8116396 0.2 10101549
20:00+8юз6107321 0.0 10091001
27 мая, пт
пт2723:00+4ююз3108956 0.0 1009218
02:00+4ю499762 0.0 1008223
05:00+5ю51388100 0.3 1006451
08:00+6ю61091100 0.3 1005695
11:00+7ю71296100 1.4 1005635
14:00+10ю71092100 1.3 1004739
17:00+10ю81593100 4.9 1003852
20:00+11ю81593100 2.9 10021030